Wind_Speed
26 26 25 26 19 20 26 25 30 26 40 45 30 46 41 49 49 48 49 46 43 38 37 34 32 31 28 27 28 28 27 22 24 30 29 30 29 28 28 28 29 29 29 29
31 28 28 28 27 22 18 26 28 30 39 48 44 35 13 44 48 49 46 51 48 43 39 38 35 33 33 33 29 30 30 30 29 29 30 32 34 34 35 34 34 35 32 33
30 31 28 28 30 32 21 18 20 28 32 43 52 44 36 27 40 53 51 45 46 41 46 41 37 40 35 36 32 33 34 35 34 35 37 37 37 39 40 41 39 38 38 37
30 29 27 25 30 34 29 26 20 24 26 40 42 47 29 38 29 42 49 51 49 46 43 47 44 45 45 44 39 37 39 38 39 41 41 42 43 43 43 43 44 43 42 42
31 28 26 22 29 30 35 28 24 20 26 30 35 42 37 26 36 39 43 39 45 51 45 47 50 48 42 44 46 42 42 44 40 39 41 45 48 47 49 49 50 50 50 50
30 28 28 23 27 30 33 30 22 18 18 28 25 24 24 29 36 39 45 44 46 37 37 44 46 46 46 48 47 41 39 41 41 42 44 43 44 49 53 52 50 51 53 55
28 29 29 24 27 27 29 25 23 20 25 20 26 15 19 27 24 23 24 16 19 23 26 27 29 32 34 38 41 43 45 46 46 48 48 48 48 48 51 52 56 53 55 54
26 28 29 20 25 32 31 24 21 19 21 24 25 23 22 18 23 22 27 28 25 26 30 32 34 36 37 39 42 45 45 46 48 49 50 51 50 49 51 52 55 57 61 63
18 22 26 23 27 31 30 27 19 13 16 18 20 16 20 20 23 26 30 31 29 30 30 31 32 34 36 39 42 45 46 48 50 51 53 54 55 54 53 53 53 54 57 62
14 15 18 20 26 30 35 33 29 28 26 39 37 30 32 28 33 33 34 35 34 38 37 33 32 34 37 40 43 46 48 49 50 50 51 53 54 54 56 57 59 60 61 62
15 18 12 12 22 27 41 34 28 34 41 36 35 39 35 34 31 32 33 34 36 37 38 41 41 42 42 44 46 46 47 47 47 48 50 52 54 57 59 62 64 66 67 67
19 22 15 14 13 19 23 25 34 30 38 47 44 37 35 35 36 38 39 41 43 46 50 51 48 45 44 44 46 47 46 48 49 52 54 56 58 60 62 65 67 71 74 76
12 19 14 16 22 14 21 18 16 29 40 27 37 39 39 36 37 38 40 41 41 40 40 40 43 43 42 42 44 45 47 50 53 56 57 59 62 64 68 72 73 74 74 74
12 9 18 25 17 17 25 31 31 22 16 22 26 27 30 31 35 33 32 33 33 34 35 37 39 41 42 44 46 49 52 55 58 61 64 66 67 64 58 55 52 52 53 55
13 16 18 16 21 24 11 19 31 25 28 29 26 26 28 29 32 33 34 35 35 37 39 42 43 45 47 49 52 54 57 58 59 60 58 55 51 50 49 47 48 50 50 48
16 18 19 18 18 18 17 17 18 30 25 24 26 27 30 31 34 35 37 39 40 42 44 46 48 50 51 51 51 50 50 51 52 52 48 48 48 48 48 48 49 51 54 53
20 22 23 25 25 25 24 22 22 24 26 27 29 31 33 36 39 41 42 44 44 45 48 50 49 47 45 45 46 46 45 45 46 48 48 49 50 51 51 52 54 54 53 51
23 24 26 27 27 27 25 25 26 27 28 30 32 35 37 38 39 41 41 43 45 46 47 46 45 44 44 45 47 47 48 49 49 50 51 51 53 54 52 51 50 48 48 48
23 25 26 27 27 29 30 30 29 29 30 31 32 34 36 38 40 41 43 43 44 44 44 44 45 46 48 47 46 46 46 46 46 46 46 47 47 46 46 47 48 49 49 49
27 29 29 30 31 32 33 33 34 34 34 34 35 36 37 39 41 42 42 42 44 44 45 46 46 46 45 45 45 47 48 49 48 48 49 49 50 51 52 53 54 55 56 57
16 19 23 25 27 30 33 34 35 36 37 37 38 40 41 42 42 43 44 45 46 45 45 44 45 46 47 48 49 50 51 52 52 52 54 55 56 58 60 61 62 62 62 62
16 16 16 17 19 20 21 23 25 29 31 33 34 37 39 43 44 44 43 43 43 44 45 47 48 49 50 51 52 53 54 56 57 59 60 61 62 63 64 64 64 63 63 63
23 23 24 25 27 28 30 31 33 36 37 38 38 39 40 42 42 43 43 43 44 45 47 48 50 53 55 56 57 58 60 61 63 63 64 64 64 63 63 62 61 59 58 57
25 26 27 29 30 31 33 35 36 36 37 37 39 40 40 40 41 43 45 47 50 52 53 55 57 58 60 61 62 63 63 62 62 62 62 62 61 59 58 56 55 53 52 50
30 31 31 31 30 29 29 30 31 33 35 37 40 42 44 47 49 51 53 54 56 57 59 60 61 61 61 61 61 61 62 62 62 62 61 59 57 55 51 48 46 44 42 40
27 26 26 28 30 31 33 36 38 41 43 45 47 49 51 52 54 55 57 58 60 60 59 59 59 60 60 61 60 60 59 58 55 53 50 48 44 42 40 38 36 35 35 35
29 30 32 34 35 37 39 41 43 45 48 50 52 54 56 57 58 58 59 59 59 60 60 59 58 57 55 53 51 50 48 45 43 40 37 35 33 32 31 31 31 33 34 35
Wind_Direction
231 231 232 225 217 216 219 234 223 215 210 212 207 215 214 231 229 223 217 222 225 231 238 246 240 236 237 244 259 257 254 258 257 248 248 259 262 264 265 263 261 258 255 255
242 230 231 228 226 218 219 237 235 220 218 221 228 202 217 213 226 226 230 228 224 231 235 242 242 237 237 242 255 255 258 261 260 259 256 250 252 255 260 263 262 255 257 263
240 241 234 231 228 229 218 223 233 228 224 223 227 233 234 231 209 215 214 225 216 233 230 233 245 244 247 246 257 255 258 259 257 257 258 257 255 256 256 257 260 262 262 257
238 241 239 234 231 229 230 229 218 215 222 226 230 232 247 239 239 212 202 209 211 219 222 235 251 252 243 246 258 257 253 257 257 256 254 255 256 257 260 263 264 264 264 266
245 238 237 236 231 230 229 228 235 242 230 231 222 230 229 234 232 229 233 221 211 212 214 230 236 233 241 251 258 259 263 266 267 266 261 254 252 256 258 257 259 261 264 266
242 241 237 231 234 231 230 229 234 237 240 229 221 233 224 229 229 231 238 239 232 233 230 234 237 245 248 248 252 260 268 270 272 272 271 268 262 257 256 254 255 257 261 264
244 244 231 232 230 229 228 229 239 242 225 204 186 203 222 214 210 218 232 243 241 250 256 256 262 264 267 266 264 266 269 274 277 277 277 276 272 268 265 262 261 263 265 261
248 244 239 241 233 227 224 225 228 239 252 256 264 270 246 261 255 250 254 254 252 244 249 256 262 266 270 270 270 270 272 274 275 276 277 278 278 278 277 275 271 269 269 272
243 239 243 238 234 229 224 226 239 237 248 244 265 226 244 266 235 250 250 247 249 254 261 265 266 268 269 270 272 271 270 270 271 272 271 273 274 275 275 276 275 275 275 274
224 223 237 239 234 225 209 203 209 206 200 207 203 198 214 233 245 251 252 252 254 254 259 267 272 274 273 272 272 269 266 265 265 266 268 270 272 273 275 275 276 276 276 276
221 217 227 229 225 223 215 209 209 222 222 224 223 217 226 237 253 266 271 273 269 267 268 274 279 280 278 276 273 271 268 270 273 275 276 278 280 282 283 282 282 280 280 279
217 219 235 221 219 227 217 230 223 216 221 226 236 242 245 258 273 281 280 280 279 278 279 280 279 278 279 280 277 274 275 276 278 280 282 284 285 286 287 287 287 286 285 284
232 224 215 228 246 239 234 214 218 229 242 250 251 251 259 267 271 276 277 281 283 285 284 279 275 280 280 278 275 277 279 281 283 284 285 285 286 286 286 287 289 289 290 290
226 205 219 231 240 254 244 237 235 231 234 247 254 255 258 269 275 272 272 274 276 278 279 278 277 277 277 277 278 280 282 283 284 284 286 287 289 290 289 288 292 294 294 300
235 237 258 257 247 252 253 251 255 248 252 260 259 262 261 263 266 266 270 272 274 275 275 275 275 276 277 278 279 280 282 284 286 287 288 289 288 288 287 285 291 290 290 295
255 253 257 259 259 269 265 261 256 246 254 255 257 257 256 260 263 266 268 269 270 272 274 275 276 277 280 283 284 285 285 286 285 285 282 282 284 285 286 288 290 289 285 286
262 265 262 264 266 271 268 261 259 260 262 259 259 258 257 257 262 265 267 270 272 274 276 279 281 281 281 282 282 283 284 288 287 282 280 283 284 284 285 286 288 287 285 286
256 257 258 260 267 269 272 271 270 270 268 266 264 263 263 265 266 267 270 274 278 281 282 282 280 278 277 281 282 281 285 286 288 284 282 283 282 283 285 286 286 287 287 289
262 262 262 263 268 275 279 278 275 274 274 272 271 270 270 272 275 279 281 284 284 283 280 280 279 277 277 280 281 283 285 287 289 290 286 285 284 284 286 287 289 289 289 288
274 275 277 278 280 278 276 277 277 277 277 275 274 275 277 280 282 283 285 285 283 280 278 279 280 279 278 278 280 283 285 285 285 285 285 285 285 286 286 286 286 286 286 286
276 272 269 268 269 271 272 273 273 274 273 273 274 275 276 280 283 284 282 281 280 279 279 280 279 278 278 279 280 281 283 283 283 284 285 285 285 286 286 286 286 285 285 285
283 280 278 278 278 279 280 278 275 275 275 276 277 277 278 280 282 281 281 281 279 279 279 280 280 281 282 283 284 284 284 285 286 287 287 287 287 287 287 287 287 286 285 285
285 280 278 281 281 281 280 280 280 279 279 280 280 280 279 281 282 282 281 280 280 281 282 282 283 284 284 286 287 287 288 288 289 289 289 288 288 287 286 286 285 285 284 284
282 279 277 277 276 277 278 278 278 278 278 278 279 280 281 281 282 283 284 285 285 286 286 287 287 288 290 291 291 291 290 290 289 289 288 287 286 286 285 285 284 284 284 283
280 279 280 280 279 279 279 280 281 282 283 283 284 285 286 286 286 286 287 288 288 289 290 291 291 292 292 291 291 291 291 291 290 289 288 287 287 286 286 285 284 283 283 284
282 282 284 286 287 287 288 287 287 286 287 287 287 287 287 288 289 289 290 290 291 292 292 292 293 293 293 293 293 292 291 289 288 288 287 287 286 285 284 283 284 284 285 287
290 291 293 292 292 292 291 292 291 291 291 291 291 291 292 292 293 293 294 294 295 295 295 295 294 294 294 293 292 291 291 290 288 287 285 284 283 282 282 283 285 287 289 291
Height
5569 5571 5572 5576 5579 5580 5582 5586 5589 5596 5598 5602 5607 5609 5614 5615 5621 5624 5629 5634 5638 5642 5646 5651 5654 5656 5657 5659 5660 5662 5663 5665 5666 5666 5669 5670 5671 5672 5674 5674 5674 5675 5675 5675
5562 5565 5567 5569 5574 5575 5576 5579 5581 5588 5591 5594 5598 5603 5607 5610 5613 5618 5622 5626 5631 5634 5639 5643 5647 5650 5650 5652 5654 5656 5657 5658 5659 5660 5662 5662 5663 5663 5664 5665 5666 5665 5668 5669
5556 5558 5561 5565 5569 5569 5572 5574 5576 5580 5587 5589 5592 5596 5601 5607 5609 5612 5615 5618 5622 5625 5628 5634 5638 5640 5643 5644 5647 5649 5651 5652 5653 5654 5653 5654 5655 5655 5655 5655 5655 5657 5657 5655
5550 5552 5555 5559 5562 5565 5568 5571 5573 5576 5579 5582 5587 5589 5595 5600 5604 5608 5608 5611 5615 5620 5623 5625 5628 5630 5633 5635 5636 5639 5642 5644 5645 5646 5647 5646 5646 5646 5645 5645 5646 5646 5646 5645
5542 5547 5550 5553 5555 5559 5561 5567 5570 5572 5574 5576 5580 5584 5590 5594 5597 5599 5602 5603 5603 5608 5611 5615 5617 5619 5621 5623 5625 5626 5629 5631 5633 5635 5637 5638 5638 5637 5636 5635 5635 5634 5633 5632
5538 5540 5543 5547 5550 5553 5557 5563 5566 5568 5570 5575 5578 5580 5585 5588 5589 5590 5592 5593 5595 5598 5601 5604 5607 5609 5611 5613 5615 5617 5618 5619 5620 5621 5622 5623 5624 5625 5624 5624 5624 5623 5622 5619
5532 5533 5538 5542 5545 5548 5553 5562 5560 5563 5565 5569 5571 5572 5575 5577 5581 5584 5586 5588 5589 5592 5593 5594 5596 5598 5600 5602 5604 5605 5606 5606 5607 5607 5607 5608 5610 5611 5609 5609 5607 5606 5606 5605
5527 5529 5534 5537 5541 5545 5549 5552 5555 5559 5562 5565 5565 5568 5571 5572 5573 5576 5578 5580 5583 5585 5587 5589 5590 5592 5593 5593 5594 5594 5594 5594 5594 5594 5594 5593 5592 5592 5592 5592 5591 5590 5588 5585
5524 5525 5527 5531 5535 5538 5545 5548 5551 5556 5557 5560 5564 5565 5567 5568 5568 5570 5573 5574 5575 5577 5580 5581 5582 5583 5584 5584 5585 5584 5584 5584 5583 5582 5581 5580 5579 5578 5577 5576 5574 5573 5571 5569
5519 5521 5523 5525 5528 5531 5537 5541 5543 5549 5548 5552 5553 5554 5557 5557 5560 5563 5565 5566 5568 5570 5571 5573 5574 5574 5574 5575 5574 5574 5573 5573 5572 5571 5569 5568 5566 5564 5562 5560 5557 5555 5553 5551
5516 5518 5520 5521 5523 5525 5531 5535 5538 5541 5544 5544 5545 5546 5548 5551 5553 5555 5557 5558 5559 5560 5561 5561 5561 5561 5561 5561 5561 5561 5561 5560 5558 5557 5556 5554 5551 5548 5545 5542 5539 5536 5534 5531
5514 5516 5518 5520 5521 5523 5526 5528 5530 5535 5538 5540 5540 5541 5543 5544 5546 5546 5547 5548 5549 5550 5549 5549 5548 5548 5548 5548 5548 5547 5546 5546 5545 5544 5541 5538 5536 5533 5529 5525 5521 5517 5512 5508
5513 5512 5514 5516 5517 5519 5522 5524 5526 5529 5531 5533 5533 5534 5535 5536 5537 5538 5538 5537 5537 5536 5535 5534 5535 5535 5535 5535 5535 5535 5535 5533 5531 5528 5525 5522 5519 5515 5511 5507 5503 5498 5493 5489
5509 5509 5511 5513 5514 5517 5517 5519 5520 5522 5523 5525 5527 5527 5528 5529 5530 5531 5530 5530 5530 5530 5529 5528 5528 5527 5526 5525 5523 5522 5519 5517 5514 5511 5508 5504 5501 5497 5493 5490 5485 5481 5476 5471
5505 5506 5507 5509 5511 5513 5513 5514 5514 5516 5518 5519 5521 5521 5521 5521 5522 5523 5523 5522 5521 5521 5520 5519 5518 5516 5514 5512 5510 5508 5505 5502 5499 5496 5492 5488 5485 5481 5478 5474 5471 5467 5463 5460
5501 5503 5504 5505 5507 5508 5508 5509 5510 5511 5512 5512 5513 5513 5514 5515 5515 5515 5514 5513 5512 5510 5509 5508 5506 5504 5501 5499 5497 5494 5491 5488 5484 5480 5477 5474 5471 5467 5464 5461 5458 5454 5450 5446
5497 5498 5499 5499 5500 5500 5501 5502 5503 5503 5503 5504 5505 5505 5506 5506 5505 5505 5504 5502 5500 5498 5497 5494 5492 5489 5487 5485 5483 5480 5477 5473 5469 5466 5462 5459 5456 5453 5449 5446 5443 5439 5435 5431
5491 5492 5492 5492 5492 5492 5492 5492 5493 5493 5494 5494 5494 5494 5494 5494 5493 5492 5491 5489 5486 5484 5481 5479 5477 5475 5473 5471 5468 5465 5462 5458 5454 5450 5447 5444 5440 5437 5434 5430 5426 5423 5419 5416
5483 5483 5483 5484 5484 5483 5482 5482 5482 5483 5483 5483 5483 5482 5481 5481 5480 5478 5475 5473 5470 5468 5466 5464 5462 5460 5458 5455 5453 5449 5446 5442 5438 5435 5432 5428 5425 5422 5418 5415 5412 5408 5404 5401
5475 5474 5473 5474 5474 5474 5474 5473 5472 5472 5472 5471 5471 5471 5469 5467 5465 5463 5459 5457 5455 5454 5452 5449 5447 5444 5442 5439 5437 5433 5430 5427 5423 5420 5417 5413 5410 5406 5403 5399 5395 5392 5389 5385
5469 5468 5467 5466 5465 5464 5463 5462 5462 5461 5460 5458 5457 5456 5455 5452 5450 5447 5446 5444 5441 5439 5436 5434 5432 5429 5427 5424 5421 5417 5414 5411 5407 5404 5401 5397 5393 5389 5385 5381 5377 5374 5370 5366
5462 5461 5460 5458 5457 5456 5454 5453 5451 5450 5449 5447 5445 5443 5441 5439 5437 5435 5432 5430 5427 5424 5422 5420 5417 5414 5411 5408 5404 5401 5397 5394 5390 5386 5382 5378 5374 5370 5366 5362 5357 5353 5349 5345
5456 5455 5453 5451 5449 5447 5445 5443 5441 5439 5437 5435 5433 5431 5429 5427 5424 5422 5419 5417 5414 5411 5408 5405 5401 5398 5395 5391 5387 5383 5379 5375 5371 5366 5362 5358 5354 5350 5345 5341 5337 5333 5329 5326
5448 5446 5444 5442 5440 5437 5435 5432 5430 5428 5425 5423 5420 5418 5415 5412 5410 5407 5405 5402 5399 5395 5391 5388 5383 5380 5376 5371 5367 5363 5358 5354 5349 5345 5341 5337 5333 5329 5325 5321 5317 5314 5311 5308
5439 5437 5434 5432 5429 5426 5424 5421 5419 5416 5414 5411 5408 5405 5402 5399 5396 5392 5388 5385 5381 5377 5373 5369 5364 5360 5355 5350 5346 5341 5336 5331 5326 5321 5317 5314 5311 5308 5305 5302 5299 5297 5295 5293
5430 5428 5425 5423 5420 5417 5414 5411 5408 5404 5401 5397 5394 5390 5386 5383 5379 5374 5370 5366 5362 5357 5352 5348 5343 5338 5333 5328 5324 5319 5315 5310 5306 5302 5298 5295 5293 5291 5289 5287 5285 5283 5282 5280
5422 5419 5416 5413 5409 5406 5402 5398 5394 5390 5386 5381 5377 5372 5368 5363 5358 5353 5348 5343 5339 5334 5330 5327 5322 5317 5313 5308 5304 5299 5295 5292 5289 5286 5284 5282 5280 5279 5277 5276 5274 5272 5270 5268